Regional Weather Roundup
Issued by NWS Kansas City/Pleasant Hill, MO

Home | Current Version | Previous Version | Text Only | Print | Product List | Glossary On
Versions: 1 2 3 4 5 6 7 8 9 10 11 12 13 14 15 16 17 18 19 20 21 22 23 24 25 26 27 28 29 30 31 32 33 34 35 36 37 38 39 40 41 42 43 44 45 46 47 48 49 50
000
ASUS43 KEAX 232211
RWREAX

WEATHER ROUNDUP FOR EASTERN KANSAS AND NORTHWEST MISSOURI
NATIONAL WEATHER SERVICE KANSAS CITY/PLEASANT HILL MO
500 PM CDT WED APR 23 2014

KSZ040-057-103>105-MOZ028-029-037-043-232300-
...KANSAS CITY METROPOLITAN AREA...

CITY           SKY/WX    TMP DP  RH WIND       PRES   REMARKS
K.C. INTL      CLOUDY    71  43  36 SE18G28   29.79F
K.C. DOWNTOWN  PTSUNNY   76  43  30 SE13G20   29.79F
LEES SUMMIT    MOSUNNY   73  43  33 SE17G26   29.81F
OLATHE - IXD   PTSUNNY   75  45  34 SE22G28   29.79F
OLATHE - OJC   PTSUNNY   73  45  36 SE18G28   29.79F
LAWRENCE       PTSUNNY   78  46  32 SE20G29   29.75F

$$

MOZ001>008-011>017-020>025-030>033-038>040-044>046-053-054-232300-
...NORTHERN AND CENTRAL MISSOURI...

CITY           SKY/WX    TMP DP  RH WIND       PRES   REMARKS
ST. JOSEPH     CLOUDY    70  41  34 SE24G32   29.75F
MOSBY          FAIR      72  41  33 SE15G22   29.81F
WARRENSBURG    MOSUNNY  N/A N/A N/A SE16      29.84F
WHITEMAN AFB   MOSUNNY   72  33  23 SE15      29.85F
CLINTON        MOSUNNY   75  43  31 SE16G22   29.85F
SEDALIA        MOSUNNY   72  40  31 SE21G28   29.87F
WARSAW         NOT AVBL
MARSHALL         N/A     73  43  33 SE17G23   29.88F
CHILLICOTHE      N/A     68  39  34 E12G22    29.87F
MOBERLY        PTSUNNY   64  39  39 E13       29.95S
KIRKSVILLE     CLOUDY    60  37  42 E18       29.96F

$$

MOZ041-047>049-056>058-063>065-088>090-097-232300-
...EASTERN AND SOUTHERN MISSOURI...

CITY           SKY/WX    TMP DP  RH WIND       PRES   REMARKS
ST. LOUIS INTL CLOUDY    64  34  32 E12       30.01F
SPIRIT OF STL  CLOUDY    62  36  37 E10       29.98F
COLUMBIA       MOSUNNY   65  39  38 E14       29.92F
JEFFERSON CITY MOSUNNY   69  34  27 E14       29.90F
MEXICO         PTSUNNY   61  41  48 E14G22    29.95F
HANNIBAL       CLOUDY    61  30  31 E12G18    30.00S
ROLLA          CLOUDY    72  33  24 E8        29.91F
LEBANON        MOSUNNY   77  34  20 SE12      29.89F
OSAGE BEACH    MOSUNNY   73  36  25 SE9       29.90F
SPRINGFIELD    SUNNY     77  42  28 SE17      29.87F
BRANSON        MOSUNNY   77  41  27 SE12G20   29.89F
NEVADA         MOSUNNY   79  46  31 SE13G22   29.81F
JOPLIN         SUNNY     80  46  30 S14G23    29.81F
WEST PLAINS    SUNNY     73  36  25 S13       29.94F
MALDEN         SUNNY     73  37  27 E7        29.97F

$$

IAZ060-094-KSZ022-034>040-054-083-096-NEZ052-066-093-232300-
...KANSAS...SOUTHEAST NEBRASKA AND IOWA...

CITY           SKY/WX    TMP DP  RH WIND       PRES   REMARKS
TOPEKA         PTSUNNY   80  47  31 SE20G28   29.71F
MANHATTAN      CLOUDY    85  45  24 S28G46    29.63F
EMPORIA        MOSUNNY   82  47  29 S24G32    29.69F
CHANUTE        SUNNY     82  48  30 S21G29    29.76F
WICHITA        PTSUNNY   84  45  25 S21G33    29.67F
OMAHA          LGT RAIN  54  46  74 SE23      29.68F
LINCOLN        PTSUNNY   68  46  45 SE18      29.64F
FALLS CITY     LGT RAIN  67  44  43 S30G37    29.67F
LAMONI         CLOUDY    56  40  55 SE17G23   29.82F
DES MOINES     LGT RAIN  48  40  73 SE20G25   29.87F

$$




USA.gov is the U.S. government's official web portal to all federal, state and local government web resources and services.